This is the latest recevied weather packets stored in our database for station/object KB1FFS. If no packets are shown the sender has not sent any weather packets the latest 10 day(s).
| Time | Temp. | Humidity | Pressure | Rain* | Wind** | Luminosity | Snow |
|---|---|---|---|---|---|---|---|
| 1777670676 | 18.89° C | 56% | 1016.9 hPa | 0 mm | - | 166 W/m² | - |
| 1777670372 | 19.44° C | 55% | 1017.1 hPa | 0 mm | - | 173 W/m² | - |
| 1777670070 | 18.89° C | 55% | 1016.9 hPa | 0 mm | - | 173 W/m² | - |
| 1777669767 | 18.89° C | 55% | 1017 hPa | 0 mm | - | 180 W/m² | - |
| 1777669464 | 18.89° C | 55% | 1017.3 hPa | 0 mm | - | 161 W/m² | - |
| 1777669161 | 18.89° C | 55% | 1017.2 hPa | 0 mm | - | 168 W/m² | - |
| 1777668858 | 18.33° C | 55% | 1017.3 hPa | 0 mm | - | 146 W/m² | - |
| 1777668555 | 18.33° C | 54% | 1017.7 hPa | 0 mm | - | 139 W/m² | - |
| 1777668250 | 18.33° C | 55% | 1017.8 hPa | 0 mm | - | 134 W/m² | - |
| 1777667947 | 18.33° C | 54% | 1017.8 hPa | 0 mm | - | 130 W/m² | - |
| 1777667644 | 18.33° C | 56% | 1018 hPa | 0 mm | - | 120 W/m² | - |
| 1777667342 | 18.33° C | 54% | 1017.8 hPa | 0 mm | - | 116 W/m² | - |
| 1777667038 | 18.33° C | 54% | 1017.8 hPa | 0 mm | - | 110 W/m² | - |
| 1777666735 | 18.33° C | 54% | 1017.7 hPa | 0 mm | - | 102 W/m² | - |
| 1777666432 | 18.33° C | 53% | 1017.8 hPa | 0 mm | - | 103 W/m² | - |
| 1777666128 | 18.33° C | 52% | 1017.9 hPa | 0 mm | - | 106 W/m² | - |
| 1777665825 | 18.33° C | 51% | 1017.9 hPa | 0 mm | - | 126 W/m² | - |
| 1777665523 | 18.33° C | 51% | 1017.8 hPa | 0 mm | - | 143 W/m² | - |
| 1777665219 | 18.33° C | 50% | 1017.7 hPa | 0 mm | - | 160 W/m² | - |
| 1777664915 | 18.33° C | 51% | 1017.6 hPa | 0 mm | - | 161 W/m² | - |
| 1777664611 | 18.33° C | 50% | 1017.4 hPa | 0 mm | - | 176 W/m² | - |
| 1777664307 | 18.89° C | 51% | 1017.5 hPa | 0 mm | - | 194 W/m² | - |
| 1777664006 | 18.33° C | 55% | 1017.3 hPa | 0 mm | - | 202 W/m² | - |
| 1777663703 | 18.33° C | 54% | 1017.4 hPa | 0 mm | - | 169 W/m² | - |
| 1777663400 | 18.33° C | 53% | 1017.6 hPa | 0 mm | - | 159 W/m² | - |
* Rain latest hour (hover to see other rain measurements)
** Current wind speed in m/s (hover to see current wind gust speed)